Weather History for Toronto City ON, Ontario

Change the Weather History Date:

Sunday, June 9, 2013

  Actual Average Record
Temperature  
Mean Temperature 64 °F -  
Max Temperature 73 °F - - ()
Min Temperature 54 °F - - ()
Degree Days  
Heating Degree Days 2    
Growing Degree Days 14 (Base 50)    
Moisture  
Dew Point 49 °F    
Average Humidity 57    
Maximum Humidity 89    
Minimum Humidity 32    
Precipitation  
Precipitation 0.00 in - - ()
Sea Level Pressure  
Sea Level Pressure 30.14 in    
Wind  
Wind Speed - ()    
Max Wind Speed -    
Max Gust Speed -    
T = Trace of Precipitation, MM = Missing Value Source: Averaged Metar Reports

Daily Weather History Graph

Daily Weather History Graph

Search for Another Location

Airport:

Trip Planner

Search our weather history database for the weather conditions in past years. The results will help you decide how hot, cold, wet, or windy it might be!

Date:

Astronomy

Jun. 09, 2013 Rise Set
Actual Time 5:35 AM EDT 8:58 PM EDT
Civil Twilight 5:00 AM EDT 9:33 PM EDT
Nautical Twilight 4:13 AM EDT 10:20 PM EDT
Astronomical Twilight 3:15 AM EDT 11:18 PM EDT
Moon 6:33 AM EDT (6/9) 9:41 PM EDT (6/9)
Length of Visible Light 16h 33m
Length of Day
15h 22m
New Moon, 1% of the Moon is Illuminated
Jun 9
New Moon
Jun 16
First Quarter
Jun 23
Full
Jun 30
Last Quarter
Jul 8
New

Hourly Weather History & Observations

Time (EDT) Temp. Dew Point Humidity Pressure Visibility Wind Dir Wind Speed Gust Speed Precip Events Conditions
12:00 AM 61.5 °F 49.3 °F 64% 30.07 in - North - - N/A   Unknown
1:00 AM 60.6 °F 49.5 °F 67% 30.09 in - North - - N/A   Unknown
2:00 AM 59 °F 51 °F 68% 30.10 in - Calm Calm - -  
2:00 AM 58.6 °F 51.3 °F 76% 30.10 in - North - - N/A   Unknown
3:00 AM 56.7 °F 50.5 °F 80% 30.11 in - North - - N/A   Unknown
4:00 AM 55.4 °F 50.7 °F 84% 30.11 in - North - - N/A   Unknown
5:00 AM 55.0 °F 51.3 °F 87% 30.13 in - North - - N/A   Unknown
6:00 AM 54.3 °F 51.3 °F 89% 30.15 in - North - - N/A   Unknown
7:00 AM 57.2 °F 53.1 °F 86% 30.17 in - North - - N/A   Unknown
8:00 AM 62 °F 51 °F 58% 30.19 in - Calm Calm - -  
8:00 AM 62.4 °F 51.1 °F 66% 30.19 in - North - - N/A   Unknown
9:00 AM 65.3 °F 49.3 °F 56% 30.19 in - North - - N/A   Unknown
10:00 AM 69.6 °F 48.7 °F 47% 30.19 in - North - - N/A   Unknown
11:00 AM 68.5 °F 50.4 °F 52% 30.19 in - North - - N/A   Unknown
12:00 PM 68.4 °F 49.3 °F 50% 30.19 in - North - - N/A   Unknown
1:00 PM 71.8 °F 47.7 °F 42% 30.18 in - North - - N/A   Unknown
2:00 PM 72 °F 49 °F 32% 30.17 in - Calm Calm - -  
2:00 PM 71.8 °F 48.6 °F 44% 30.17 in - North - - N/A   Unknown
3:00 PM 72.1 °F 48.2 °F 43% 30.17 in - North - - N/A   Unknown
4:00 PM 70.5 °F 47.5 °F 44% 30.16 in - North - - N/A   Unknown
5:00 PM 70.7 °F 48.0 °F 44% 30.15 in - North - - N/A   Unknown
6:00 PM 71.6 °F 47.7 °F 43% 30.14 in - North - - N/A   Unknown
7:00 PM 70.5 °F 46.6 °F 42% 30.13 in - North - - N/A   Unknown
8:00 PM 69 °F 47 °F 34% 30.12 in - Calm Calm - -  
8:00 PM 69.4 °F 47.1 °F 45% 30.12 in - North - - N/A   Unknown
9:00 PM 67.8 °F 46.6 °F 46% 30.12 in - North - - N/A   Unknown
10:00 PM 65.8 °F 47.3 °F 51% 30.13 in - North - - N/A   Unknown
11:00 PM 64.2 °F 47.3 °F 54% 30.13 in - North - - N/A   Unknown